Regional Weather Roundup
Issued by NWS

Home | Current Version | Previous Version | Graphics & Text | Print | Product List | Glossary On
Versions: 1 2 3 4 5 6 7 8 9 10 11 12 13 14 15 16 17 18 19 20 21 22 23 24 25 26 27 28 29 30 31 32 33 34 35 36 37 38 39 40 41 42 43 44 45 46 47 48 49 50
000
ASUS43 KIND 271409
RWRIN

WEATHER ROUNDUP FOR INDIANA
NATIONAL WEATHER SERVICE INDIANAPOLIS IN
1000 AM EDT FRI MAY 27 2016

NOTE: "FAIR" INDICATES FEW OR NO CLOUDS BELOW 12,000 FEET WITH NO
SIGNIFICANT WEATHER AND/OR OBSTRUCTIONS TO VISIBILITY.

* - STATION DOES NOT REPORT WEATHER SUCH AS PRECIPITATION OR FOG.

+ - STATION NOT QUALITY CONTROLLED BY THE NATIONAL WEATHER SERVICE.
    USE DATA WITH CAUTION...ESPECIALLY DEWPOINT AND RELATIVE
    HUMIDITY OBSERVATIONS.

INZ001>003-010>013-019-020-271500-
NORTHWEST INDIANA

CITY           SKY/WX    TMP DP  RH WIND       PRES   REMARKS
GARY /AIRPORT/ MOSUNNY   73  70  88 S7        29.92S
KNOX *+        CLOUDY    70  55  60 S13       29.95S
LA PORTE +     MOSUNNY   74  66  76 S13       29.95R
MICHIGAN CITY+ MOSUNNY   72  64  78 S8        29.94S
MONTICELLO +   CLOUDY    71  62  74 S5        29.95F
RENSSELAER +   CLOUDY    70  64  83 S8        29.94F
VALPARAISO     MOSUNNY   70  63  78 SW10      29.95R

$$

LMZ046-743>745-271500-
SOUTHERN LAKE MICHIGAN

STATION/POSITION TIME  TEMP    WIND        PRES    WAVE
                       AIR SEA DIR/SP/G            HT
                 (UTC) (F)     (DEG/KT/KT) (MB)    (FT)
BURNS HARBOR     1300   69     190/ 11/ 15 1013.5F
MICHIGAN CITY    1300   68     150/ 11/ 15   N/A
5NW MICH CITY    1400   64 58  200/  6/  8   N/A     1

$$

INZ004-005-014>016-021>024-271500-
NORTH CENTRAL INDIANA

CITY           SKY/WX    TMP DP  RH WIND       PRES   REMARKS
ELKHART        CLOUDY    72  66  83 S8        29.97S
GOSHEN         CLOUDY    72  61  68 S8        29.97S
LOGANSPORT +   CLOUDY    70  63  78 S7        29.98S
ROCHESTER +    CLOUDY    72  64  78 S9        29.98S
SOUTH BEND     PTSUNNY   71  64  78 S12       29.95S
WARSAW +       CLOUDY    70  63  78 S7        29.98R

$$

INZ006>009-017-018-025>027-271500-
NORTHEAST INDIANA

CITY           SKY/WX    TMP DP  RH WIND       PRES   REMARKS
ANGOLA *+        N/A     72  63  73 S7        29.98F
AUBURN +       MOSUNNY   72  61  68 S6        30.00S
FORT WAYNE     PTSUNNY   73  62  68 SW12      30.00S
HUNTINGTON +   CLOUDY    71  63  77 SW6       29.99F

$$

INZ028-029-035-036-043>045-051>053-271500-
WEST CENTRAL INDIANA

CITY           SKY/WX    TMP DP  RH WIND       PRES   REMARKS
CRAWFORDSVL +  PTSUNNY   70  68  95 S10       29.98R
GREENCASTLE +  MOSUNNY   68  68 100 S9        30.01R
LAFAYETTE      MOSUNNY   73  64  73 VRB5      29.95F
TERRE HAUTE    CLOUDY    71  65  81 VRB3      29.98S

$$

INZ030>032-037>040-046>048-054>057-064-065-271500-
CENTRAL INDIANA

CITY           SKY/WX    TMP DP  RH WIND       PRES   REMARKS
ANDERSON       SUNNY     70  64  83 S6        30.02F
CP ATTERBURY + CLOUDY    70  64  83 CALM      30.02R
COLUMBUS       PTSUNNY   72  68  88 SW6       30.02S
FISHERS *+     MOSUNNY   70  68  94 SE7       29.99
FRANKFORT +      N/A     73  58  59 S3        29.99S
GREENWOOD *+   CLOUDY    70  66  88 S9        30.02S
INDIANAPOLIS   PTSUNNY   69  65  86 S9        29.98F
-EAGLE CREEK   CLOUDY    71  64  78 S7        29.99S
KOKOMO *+      CLOUDY    70  63  78 S8        29.97F
MARION +       PTSUNNY   69  63  82 S9        30.01S
SHELBYVILLE    MOSUNNY   75  64  68 S8        30.00F
ZIONSVILLE +   CLOUDY    71  64  79 SE7       29.98F

$$

INZ033-034-041-042-049-050-058-059-271500-
EAST CENTRAL INDIANA

CITY           SKY/WX    TMP DP  RH WIND       PRES   REMARKS
MUNCIE         CLOUDY    72  63  73 S6        30.01F

$$

INZ060-061-067>069-081>083-085>088-271500-
SOUTHWEST INDIANA

CITY           SKY/WX    TMP DP  RH WIND       PRES   REMARKS
EVANSVILLE     MOSUNNY   74  65  73 S9        29.99R
HUNTINGBURG *+ MOSUNNY   73  66  78 S9G16     30.01R
WASHINGTON +   PTSUNNY   72  69  88 S7        29.99R

$$

INZ062-063-066-070>080-084-089>092-271500-
SOUTH CENTRAL AND SOUTHEAST INDIANA

CITY           SKY/WX    TMP DP  RH WIND       PRES   REMARKS
BEDFORD +      PTSUNNY   72  72 100 S3        30.01S
BLOOMINGTON    MOSUNNY   72  64  76 S5        30.00S
MADISON *+     PTSUNNY   70  63  78 S9        30.06R
NORTH VERNON + CLOUDY   N/A N/A N/A CALM      30.04R
SEYMOUR +      MOSUNNY   73  66  78 S8        30.03R

$$





USA.gov is the U.S. government's official web portal to all federal, state and local government web resources and services.